sat.trackr.live / text

‹ back to catalog

STARLINK-37047

NORAD 68957 · 2026-099G

PAYLOAD ACTIVE UNKNOWN

§ Identity

Operator
Country
US
Launch date
2026-05-01
Launch site
AFETR
Launch vehicle
Mass (kg)
RCS (m²)

Purposes: comms

External: N2YO · Heavens-Above · Gunter

§ Orbital elements

Epoch: 2026-09-20T02:46:56.872128Z

Period
93.85 min
Inclination
53.1576°
Eccentricity
0.0001679
Mean motion
15.34385028 rev/d
Perigee alt
461.6 km
Apogee alt
463.9 km
Semi-major
6,840.9 km
B*
4.4954e-4
RAAN
77.7277°
Arg perigee
108.6618°
Mean anomaly
251.4567°
Rev number
2,184

§ Raw data

STARLINK-370471 68957U 26099G   26263.11593602  .00014835  00000+0  44954-3 0  99962 68957  53.1576  77.7277 0001679 108.6618 251.4567 15.34385028 21848

JSON: /api/v1/satellites/68957 · /tle

For live sub-satellite position, see the globe view (requires WebGL).

§ Visibility from observer

Set your observer location to see the next 7 days of passes ≥ 10°. The values pass through the URL so the page stays shareable.

No JS? Fill the form by hand. The geolocation button needs JavaScript.